Weather Roundup
Issued by NWS Chicago, IL

Home | Current Version | Previous Version | Graphics & Text | Print | Product List | Glossary Off
Versions: 1 2 3 4 5 6 7 8 9 10 11 12 13 14 15 16 17 18 19 20 21 22 23 24 25 26 27 28 29 30 31 32 33 34 35 36 37 38 39 40 41 42 43 44 45 46 47 48 49 50

000
NZUS59 KLOT 291308
HRRLOT

CHICAGO AREA WEATHER ROUNDUP
NATIONAL WEATHER SERVICE CHICAGO/ROMEOVILLE IL
800 AM CDT FRI APR 29 2016

NOTE: "FAIR" INDICATES FEW OR NO CLOUDS BELOW 12,000 FEET WITH NO
SIGNIFICANT WEATHER AND/OR OBSTRUCTIONS TO VISIBILITY.

* THESE STATIONS ARE NOT UNDER NWS QUALITY CONTROL. THEY ALSO MAY NOT
  REPORT WEATHER SUCH AS PRECIPITATION OR FOG.

ILZ005-006-012>014-019>023-291400-
NORTHEAST ILLINOIS

CITY           SKY/WX    TMP DP  RH WIND       PRES   REMARKS
OHARE          CLOUDY    42  40  92 N9        30.08S FOG
MIDWAY         CLOUDY    44  40  85 N9        30.07F FOG
AURORA         CLOUDY    44  40  85 N12       30.08F FOG
LANSING*       CLOUDY    45  42  90 N6        30.07F FOG
JOLIET*        CLOUDY    47  43  88 N8        30.07S
WAUKEGAN       CLOUDY    42  39  89 N8        30.08S
DUPAGE AIRPORT CLOUDY    43  39  86 NW10      30.07F
WHEELING       CLOUDY    42  39  89 N7        30.09F
KANKAKEE*      CLOUDY    48  44  85 N9        30.06F FOG
MORRIS*        CLOUDY    45  42  90 N7        30.06F
LEWIS AIRPORT* CLOUDY    44  41  88 N8        30.07S FOG
$$

WIZ051-052-058>065-066-070>072-291400-
SOUTHEAST WISCONSIN

CITY           SKY/WX    TMP DP  RH WIND       PRES   REMARKS
MILWAUKEE      CLOUDY    41  37  86 N9        30.10R
KENOSHA*       CLOUDY    42  38  85 N8        30.09S
RACINE*        CLOUDY    41  38  89 N7        30.11R
BURLINGTON     CLOUDY    40  38  94 N7        30.09S
WAUKESHA       CLOUDY    39  37  93 N6        30.11R
WEST BEND      CLOUDY    37  36  93 N3        30.11R
$$

INZ001>003-010>013-019-020-291400-
NORTHWEST INDIANA

CITY           SKY/WX    TMP DP  RH WIND       PRES   REMARKS
GARY*          CLOUDY    45  45 100 N9        30.08S FOG
MICHIGAN CITY* NOT AVBL
RENSSELAER*    NOT AVBL
VALPARAISO     CLOUDY    44  41  89 NW12      30.06S
$$

LMZ740>746-291400-
SOUTHERN LAKE MICHIGAN

STATION/POSITION TIME  SKY/WX   TEMP WIND        PRES    VSBY
                                AIR  DIR/SP/G
                 (UTC)          (F)  (DEG/KT/KT) (MB)    (MI)
HARRISON CRIB    1220            42  330/ 16/ 17   N/A
BURNHAM HARBOR   1300            42  340/  8/ 10   N/A
CALUMET HARBOR   1200            44  320/  4/  6 1017.9R
BURNS HARBOR     1216            42  330/ 12/ 16 1018.6R
MICHIGAN CITY    1220            42  260/ 12/ 14   N/A
$$

ABBREVIATIONS USED IN REMARKS
   TC - TEMPERATURE IN CELSIUS
  WCI - WIND CHILL INDEX
   HX - HEAT INDEX
  VSB - VISIBILITY
$$




USA.gov is the U.S. government's official web portal to all federal, state and local government web resources and services.